Regional Weather Roundup
Issued by NWS Newport/Morehead, NC

Current Version | Previous Version | Graphics & Text | Print | Product List | Glossary On
Versions: 1 2 3 4 5 6 7 8 9 10 11 12 13 14 15 16 17 18 19 20 21 22 23 24 25 26 27 28 29 30 31 32 33 34 35 36 37 38 39 40 41 42 43 44 45 46 47 48 49 50
000 ASUS42 KMHX 200810 RWRMHX WEATHER ROUNDUP FOR EASTERN NORTH CAROLINA NATIONAL WEATHER SERVICE NEWPORT/MOREHEAD CITY NC 300 AM EST SAT DEC 20 2014 NOTE: "FAIR" INDICATES FEW OR NO CLOUDS BELOW 12,000 FEET WITH NO SIGNIFICANT WEATHER AND/OR OBSTRUCTIONS TO VISIBILITY NCZ015>017-031-032-045>047-102-103-200900- NORTH COAST CITY SKY/WX TMP DP RH WIND PRES REMARKS EDENTON N/A 33 30 88 N3 30.25S ELIZABETH CITY PTCLDY 35 28 75 NW5 30.25S KITTY HAWK PTSUNNY 39 32 73 CALM 30.22S MANTEO MOCLDY 39 32 77 N5 30.24R $$ NCZ045>047-081-094-103-104-200900- CENTRAL COAST CITY SKY/WX TMP DP RH WIND PRES REMARKS FRISCO PTCLDY 41 34 76 NE3 30.23R SWANQUARTER N/A 36 N/A N/A NE3 30.21S $$ NCZ095-097-098-100-101-200900- SOUTHERN COAST CITY SKY/WX TMP DP RH WIND PRES REMARKS BEAUFORT CLOUDY 41 36 82 NE5 30.23R CEDAR ISLAND N/A 45 N/A N/A NE12 30.27R JACKSONVILLE CLOUDY 42 33 70 E6 30.22S PINEY ISLAND PTSUNNY 46 34 62 NE5 30.24R WILMINGTON CLOUDY 42 35 76 NE5 30.20F $$ NCZ011>013-027>030-043-044-078>080-089-090>093-098-200900- COASTAL PLAIN CITY SKY/WX TMP DP RH WIND PRES REMARKS AHOSKIE MOCLDY 31 28 86 N3 30.27S CLINTON CLOUDY 40 34 80 CALM 30.22F ELIZABETHTOWN CLOUDY 41 33 73 CALM 30.20F GOLDSBORO CLOUDY 36 35 98 NE1 30.23R GREENVILLE MOCLDY 34 32 93 CALM 30.26R HAVELOCK CLOUDY 38 34 85 CALM 30.24R KENANSVILLE CLOUDY 35 33 90 CALM 30.23F KINSTON CLOUDY 33 32 94 CALM 30.25R NEW BERN CLOUDY 38 32 79 NE3 30.24R RICHLANDS CLOUDY 36 32 87 CALM 30.23S ROCKY MOUNT CLOUDY 35 30 82 NE6 30.27R WASHINGTON MOCLDY 34 32 92 NE7 30.25S WHITEVILLE CLOUDY 43 35 72 CALM 30.19S $$ AMZ130-135-150-152-154-156-158-170-250-252-270-ANZ085-086-088-633-658-670-200900- MARINE OBSERVATIONS STATION/POSITION TIME TEMP WIND PRES WAVE SWELL AIR SEA DIR/SP/G HT/PER HT/PER (UTC) (F) (DEG/KT/KT) (MB) (FT/S) (FT/S) CHESAPEAKE LIGHT 0700 40 360/ 13/ 14 1024.1 64 E VA BEACH 0800 43 55 340/ 10/ 14 1022.7 3/ 5 2/ 5 DUCK 0800 42 46 350/ 10/ 12 1022.8 2 E DUCK 0800 47 N/A 3/ 6 10 NE DUCK 0800 52 N/A 4/ 5 OREGON INLET 0800 41 50 350/ 7/ 11 1023.7 13E OREGON INLT 0800 52 N/A 4/ 6 HATTERAS CG 0800 44 52 40/ 5/ 7 1023.7 DIAMOND BUOY 0800 46 1023.4 3/ 8 17 S OCRACOKE NOT AVBL CAPE LOOKOUT 0700 45 20/ 8/ 11 1022.7 BEAUFORT LAB 0800 43 52 30/ 4/ 6 1022.7 30 SE NEW RIVER 0800 52 61 30/ 10/ 12 1023.3 2/11 2/11 5 SE WRIGHTSVLE NOT AVBL 225 S CAPE HAT 0721 65 72 20/ 6/ 10 1020.7 2/11 2/11 41 SE CHARLESTON 0800 65 68 60/ 12/ 14 1019.5 2/ 4 2/11 $$

USA.gov is the U.S. government's official web portal to all federal, state and local government web resources and services.